EW4652 Weather Reports


time (UTC)temp
C
wind
direction
speed
KPH
gust
KPH
rain 1hr
cm
rain 24hr
cm
rain mn
cm
humidity
%
barometer
mb
20260504034518 8 280 0.0 1.6 0.00 0.00 0.00 61 1006.7
20260504033014 8 280 0.0 1.6 0.00 0.00 0.00 60 1006.8
20260504031510 10 280 0.0 4.8 0.00 0.00 0.00 56 1007.0
20260504030008 12 280 1.6 3.2 0.00 0.00 0.00 47 1006.9
20260504024510 13 280 0.0 3.2 0.00 0.00 0.00 44 1007.0
20260504023007 12 280 0.0 4.8 0.00 0.00 0.00 45 1006.9
20260504021506 13 280 3.2 4.8 0.00 0.00 0.00 45 1006.8
20260504020005 13 280 3.2 6.4 0.00 0.00 0.00 44 1006.7
20260504014507 15 281 8.0 14.5 0.00 0.00 0.00 42 1006.6
20260504013005 16 296 6.4 14.5 0.00 0.00 0.00 40 1006.7
20260504011504 16 296 6.4 12.9 0.00 0.00 0.00 40 1006.7
20260504010003 17 295 6.4 16.1 0.00 0.00 0.00 38 1006.6
20260504004505 18 293 6.4 17.7 0.00 0.00 0.00 36 1006.5
20260504003001 20 297 6.4 16.1 0.00 0.00 0.00 31 1006.5
20260504001502 20 308 11.3 17.7 0.00 0.00 0.00 30 1006.6
20260504000137 20 307 16.1 25.7 0.00 0.00 0.00 30 1006.6
20260503234603 20 303 16.1 25.7 0.00 0.00 0.00 28 1006.5
20260503233140 21 313 11.3 22.5 0.00 0.00 0.00 30 1006.4
20260503231539 21 327 12.9 30.6 0.00 0.00 0.00 28 1006.5
20260503230138 21 315 14.5 27.4 0.00 0.00 0.00 27 1006.5
20260503224538 21 277 16.1 27.4 0.00 0.00 0.00 30 1006.4
20260503223038 21 322 17.7 29.0 0.00 0.00 0.00 28 1006.4
20260503221539 21 315 14.5 30.6 0.00 0.00 0.00 30 1006.4
20260503220036 21 298 19.3 40.2 0.00 0.00 0.00 31 1006.4
20260503214534 21 302 22.5 37.0 0.00 0.00 0.00 31 1006.5
20260503213034 21 304 12.9 30.6 0.00 0.00 0.00 34 1006.6
20260503211534 21 338 17.7 33.8 0.00 0.00 0.00 31 1006.5
20260503210032 21 294 25.7 33.8 0.00 0.00 0.00 29 1006.5
20260503204531 21 336 17.7 38.6 0.00 0.00 0.00 28 1006.7
20260503203036 21 312 17.7 38.6 0.00 0.00 0.00 28 1006.7
20260503201630 21 319 20.9 32.2 0.00 0.00 0.00 29 1006.8
20260503200028 21 304 16.1 35.4 0.00 0.00 0.00 31 1006.8
20260503194529 21 5 14.5 30.6 0.00 0.00 0.00 33 1006.8
20260503193025 21 304 20.9 30.6 0.00 0.00 0.00 35 1007.0
20260503191523 21 5 20.9 37.0 0.00 0.00 0.00 35 1007.0
20260503190025 21 10 19.3 32.2 0.00 0.00 0.00 32 1007.1
20260503184520 21 346 14.5 40.2 0.00 0.00 0.00 36 1007.1
20260503183021 20 290 22.5 33.8 0.00 0.00 0.00 34 1007.1
20260503181515 20 5 16.1 32.2 0.00 0.00 0.00 36 1007.1
20260503180013 20 5 17.7 33.8 0.00 0.00 0.00 37 1007.3
20260503174509 20 327 16.1 38.6 0.00 0.00 0.00 41 1007.4
20260503173008 20 337 17.7 40.2 0.00 0.00 0.00 41 1007.4
20260503171509 19 317 17.7 33.8 0.00 0.00 0.00 43 1007.3
20260503090112 11 232 25.7 37.0 0.00 0.00 0.00 55 1012.1
20260503081551 11 232 25.7 40.2 0.00 0.00 0.00 51 1012.4
20260503071604 12 248 22.5 32.2 0.00 0.00 0.00 49 1012.8
20260503054539 10 228 12.9 19.3 0.00 0.00 0.00 49 1013.6
20260503053035 10 220 12.9 16.1 0.00 0.00 0.00 49 1013.8
20260503051526 10 223 12.9 17.7 0.00 0.00 0.00 48 1013.8
20260503050022 10 218 11.3 16.1 0.00 0.00 0.00 48 1014.0
20260503044541 11 220 11.3 17.7 0.00 0.00 0.00 48 1013.9
20260503043036 10 215 9.7 17.7 0.00 0.00 0.00 49 1014.0
20260503041518 10 208 8.0 12.9 0.00 0.00 0.00 49 1014.2
20260503040015 10 202 8.0 14.5 0.00 0.00 0.00 48 1014.4